Location: Malvern Link
(52.1333°N, 2.3000°W)
Time: 00:26:13
(UTC+00:00)

QB50P2 - Pass Details

Date: 29 June 2022
Orbit: 590 x 605 km, 97.9° (Epoch: 15 August)

Event Time Altitude Azimuth Distance (km) Brightness Sun altitude
Rises 02:54:32 0° 5° (N) 2,859 ? -6.8°
Reaches altitude 10° 02:57:01 10° 351° (N) 1,954 ? -6.5°
Maximum altitude 03:00:23 23° 299° (WNW) 1,282 ? -6.2°
Drops below altitude 10° 03:03:45 10° 246° (WSW) 1,950 ? -5.9°
Enters shadow 03:04:47 - 239° (WSW) 2,307 ? -5.8°
